This is the latest recevied weather packets stored in our database for station/object KC9MWQ-13. If no packets are shown the sender has not sent any weather packets the latest 10 day(s).
| Time | Temp. | Humidity | Pressure | Rain* | Wind** | Luminosity | Snow |
|---|---|---|---|---|---|---|---|
| 1777551590 | 5° C | 93% | 1017.7 hPa | 0 mm | - | 131 W/m² | - |
| 1777551287 | 5° C | 95% | 1017.8 hPa | 0 mm | - | 112 W/m² | - |
| 1777550983 | 4.44° C | 95% | 1018 hPa | 0 mm | - | 88 W/m² | - |
| 1777550681 | 4.44° C | 96% | 1017.5 hPa | 0 mm | - | 78 W/m² | - |
| 1777550376 | 4.44° C | 96% | 1017.5 hPa | 0 mm | - | 70 W/m² | - |
| 1777550073 | 4.44° C | 97% | 1017.6 hPa | 0 mm | - | 63 W/m² | - |
| 1777549770 | 3.89° C | 98% | 1017.6 hPa | 0 mm | - | 54 W/m² | - |
| 1777549466 | 3.89° C | 98% | 1017.6 hPa | 0 mm | - | 52 W/m² | - |
| 1777549162 | 3.89° C | 99% | 1017.4 hPa | 0 mm | - | 47 W/m² | - |
| 1777548858 | 3.33° C | 99% | 1017.5 hPa | 0 mm | - | 43 W/m² | - |
| 1777548555 | 3.33° C | 99% | 1017.3 hPa | 0 mm | - | 37 W/m² | - |
| 1777548252 | 3.33° C | 99% | 1017.3 hPa | 0 mm | - | 34 W/m² | - |
| 1777547949 | 2.78° C | 99% | 1017.4 hPa | 0 mm | - | 28 W/m² | - |
| 1777547645 | 2.78° C | 99% | 1017.3 hPa | 0 mm | - | 19 W/m² | - |
| 1777547341 | 2.78° C | 99% | 1017.4 hPa | 0 mm | - | 17 W/m² | - |
| 1777547040 | 2.78° C | 99% | 1017.2 hPa | 0 mm | - | 12 W/m² | - |
| 1777546736 | 2.78° C | 99% | 1017.4 hPa | 0 mm | - | 9 W/m² | - |
| 1777546433 | 2.78° C | 99% | 1017.5 hPa | 0 mm | - | 6 W/m² | - |
| 1777546130 | 2.78° C | 99% | 1017.5 hPa | 0 mm | - | 3 W/m² | - |
| 1777545826 | 2.78° C | 99% | 1017.4 hPa | 0 mm | - | 2 W/m² | - |
| 1777545523 | 2.78° C | 99% | 1017.4 hPa | 0 mm | - | 0 W/m² | - |
| 1777545219 | 2.78° C | 99% | 1017.3 hPa | 0 mm | - | 0 W/m² | - |
| 1777544918 | 2.78° C | 99% | 1017.4 hPa | 0 mm | - | 0 W/m² | - |
| 1777544614 | 2.78° C | 99% | 1017.7 hPa | 0 mm | - | 0 W/m² | - |
| 1777544310 | 2.78° C | 99% | 1017.4 hPa | 0 mm | - | 0 W/m² | - |
* Rain latest hour (hover to see other rain measurements)
** Current wind speed in m/s (hover to see current wind gust speed)